Flag for United Kingdom Weather past 2 weeks in Northampton, England, United Kingdom

Now
46 °F

Passing clouds.


Feels Like: 41 °F
Forecast: 31 / 47 °F
Wind: 13 mph from West

Location: Cranfield

Current Time: Feb 27, 2015 at 2:17:01 PM

Latest Report: Feb 27, 2015 at 1:50 PM


Visibility: N/A

Pressure: 30.09 "Hg

Humidity: 62%

Dew point: 34 °F

Location of NorthamptonLocation

Historic Weather in Northampton — Graph

°F

Northampton temperature yesterday

Maximum temperature yesterday: 52 °F (at 9:20 AM)
Minimum temperature yesterday: 43 °F (at 5:20 PM)
Average temperature yesterday: 48 °F

Past Weeks' High & Low Weather Summary

 TemperatureHumidityPressure
High52 °F (Feb 25, 1:20 PM)100% (Feb 14, 8:20 AM)30.69 "Hg (Feb 14, 8:20 AM)
Low34 °F (Feb 17, 7:20 AM)53% (Feb 24, 2:50 PM)29.18 "Hg (Feb 23, 12:50 PM)
Average43 °F82%29.85 "Hg
* Reported Feb 12 1:20 PM — Feb 27 1:20 PM, Northampton, Weather by CustomWeather, © 2015

Note: Actual official high and low records may vary slightly from our data, if they occured in-between our weather recording intervals... More about our weather records

Advertising

Northampton weather history for previous 24 hours

 ConditionsComfort  
Time TempWeatherWind HumidityBarometerVisibility
1:20 PM
Fri, Feb 27
46 °FPassing clouds.12 mph62%30.09 "HgN/A
12:50 PM46 °FPassing clouds.13 mph66%30.09 "HgN/A
12:20 PM46 °FPassing clouds.10 mph62%30.09 "HgN/A
11:50 AM45 °FPassing clouds.10 mph66%30.09 "HgN/A
11:20 AM45 °FPassing clouds.9 mph71%30.09 "HgN/A
10:50 AM43 °FPassing clouds.9 mph76%30.09 "HgN/A
10:20 AM43 °FPassing clouds.9 mph71%30.09 "HgN/A
9:50 AM41 °FSunny.8 mph76%30.09 "Hg10 mi
9:20 AM39 °FSunny.9 mph81%30.09 "Hg10 mi
8:50 AM37 °FSunny.9 mph87%30.07 "Hg10 mi
8:20 AM36 °FSunny.7 mph87%30.07 "Hg10 mi
7:50 AM34 °FSunny.9 mph93%30.07 "Hg10 mi
5:50 PM
Thu, Feb 26
43 °FPassing clouds.12 mph66%29.89 "HgN/A
5:20 PM43 °FPassing clouds.9 mph76%29.86 "HgN/A
4:50 PM45 °FPassing clouds.12 mph71%29.86 "HgN/A
4:20 PM45 °FPartly sunny.13 mph71%29.86 "HgN/A
3:50 PM45 °FPartly sunny.16 mph71%29.83 "HgN/A
3:20 PM46 °FScattered showers. Partly sunny.12 mph82%29.83 "HgN/A
2:50 PM46 °FPartly sunny.16 mph87%29.80 "HgN/A
2:20 PM46 °FPartly sunny.13 mph82%29.80 "HgN/A
Weather by CustomWeather, © 2015

See weather overviewHow to use our weather pages